K9BM Weather Reports


Display with metric or nautical units.
time (UTC)temp
F
wind
direction
speed
MPH
gust
MPH
rain 1hr
in
rain 24hr
in
rain mn
in
humidity
%
barometer
mb
20260906043005 65 78 2.0 8.0 0.00 0.00 0.00 41 1010.5
20260906042505 66 79 3.0 8.0 0.00 0.00 0.00 41 1010.6
20260906042005 66 80 4.0 7.0 0.00 0.00 0.00 41 1010.5
20260906041505 66 64 3.0 8.0 0.00 0.00 0.00 41 1010.5
20260906035506 66 62 6.0 8.0 0.00 0.00 0.00 40 1010.4
20260906035005 66 79 3.0 5.0 0.00 0.00 0.00 40 1010.4
20260906034005 66 66 4.0 8.0 0.00 0.00 0.00 40 1010.3
20260906033505 66 59 5.0 6.0 0.00 0.00 0.00 40 1010.3
20260906033006 66 56 3.0 6.0 0.00 0.00 0.00 40 1010.3
20260906032505 66 56 4.0 5.0 0.00 0.00 0.00 40 1010.3
20260906031505 67 58 3.0 7.0 0.00 0.00 0.00 39 1010.2
20260906030005 67 59 3.0 5.0 0.00 0.00 0.00 40 1010.0
20260906025505 68 61 2.0 7.0 0.00 0.00 0.00 39 1010.0
20260906025007 68 58 4.0 7.0 0.00 0.00 0.00 39 1009.9
20260906024505 68 55 2.0 7.0 0.00 0.00 0.00 38 1009.9
20260906024005 69 53 3.0 7.0 0.00 0.00 0.00 38 1009.7
20260906023505 69 90 5.0 10.0 0.00 0.00 0.00 38 1009.5
20260906023005 69 100 5.0 10.0 0.00 0.00 0.00 38 1009.5
20260906022505 69 96 7.0 10.0 0.00 0.00 0.00 37 1009.4
20260906022005 69 100 7.0 10.0 0.00 0.00 0.00 37 1009.5
20260906020004 71 106 8.0 12.0 0.00 0.00 0.00 35 1009.3
20260906015505 71 101 7.0 13.0 0.00 0.00 0.00 34 1009.2
20260906015005 72 103 10.0 13.0 0.00 0.00 0.00 34 1009.1
20260906014505 72 98 10.0 13.0 0.00 0.00 0.00 33 1009.0
20260906014005 73 107 10.0 16.0 0.00 0.00 0.00 33 1009.0
20260906013505 73 103 11.0 16.0 0.00 0.00 0.00 32 1009.0
20260906013005 74 107 10.0 15.0 0.00 0.00 0.00 31 1008.9
20260906012005 75 95 10.0 15.0 0.00 0.00 0.00 30 1008.8
20260906011505 75 98 9.0 15.0 0.00 0.00 0.00 29 1008.8
20260906011005 76 85 10.0 16.0 0.00 0.00 0.00 28 1008.8
20260906010004 76 87 9.0 16.0 0.00 0.00 0.00 27 1008.8
20260906005505 76 84 12.0 16.0 0.00 0.00 0.00 27 1008.7
20260906005005 76 87 10.0 16.0 0.00 0.00 0.00 27 1008.7
20260906004505 77 63 9.0 15.0 0.00 0.00 0.00 27 1008.7
20260906004005 77 77 11.0 15.0 0.00 0.00 0.00 27 1008.6
20260906003005 77 71 11.0 17.0 0.00 0.00 0.00 26 1008.6
20260906002505 77 49 10.0 14.0 0.00 0.00 0.00 26 1008.6
20260906002006 78 57 9.0 14.0 0.00 0.00 0.00 26 1008.6
20260906001505 78 84 9.0 12.0 0.00 0.00 0.00 26 1008.6
20260906001005 78 88 9.0 16.0 0.00 0.00 0.00 26 1008.7
20260906000005 78 85 9.0 16.0 0.00 0.00 0.00 26 1008.7
20260905235505 78 89 11.0 15.0 0.00 0.00 0.00 26 1008.7
20260905235005 78 70 9.0 16.0 0.00 0.00 0.00 26 1008.7
20260905234505 78 108 12.0 18.0 0.00 0.00 0.00 26 1008.6
20260905234005 77 85 9.0 18.0 0.00 0.00 0.00 26 1008.7
20260905233505 78 59 7.0 14.0 0.00 0.00 0.00 25 1008.6
20260905233005 78 100 9.0 16.0 0.00 0.00 0.00 25 1008.6
20260905232005 79 106 13.0 16.0 0.00 0.00 0.00 25 1008.6
20260905231505 78 85 8.0 16.0 0.00 0.00 0.00 25 1008.6
20260905231005 78 105 13.0 16.0 0.00 0.00 0.00 25 1008.5
20260905230005 78 93 10.0 16.0 0.00 0.00 0.00 26 1008.6
20260905225505 79 72 5.0 14.0 0.00 0.00 0.00 25 1008.6
20260905225005 79 81 8.0 17.0 0.00 0.00 0.00 25 1008.6
20260905224004 78 94 12.0 17.0 0.00 0.00 0.00 26 1008.6
20260905223505 77 84 9.0 18.0 0.00 0.00 0.00 26 1008.6
20260905223005 77 79 5.0 18.0 0.00 0.00 0.00 26 1008.6
20260905222505 77 81 9.0 18.0 0.00 0.00 0.00 27 1008.6
20260905222005 76 80 8.0 14.0 0.00 0.00 0.00 27 1008.7
20260905221505 76 57 7.0 16.0 0.00 0.00 0.00 28 1008.8
20260905221005 75 69 10.0 16.0 0.00 0.00 0.00 28 1008.8
20260905220005 76 59 9.0 14.0 0.00 0.00 0.00 28 1008.8
20260905215505 75 75 10.0 14.0 0.00 0.00 0.00 29 1008.9
20260905215004 75 50 10.0 15.0 0.00 0.00 0.00 29 1009.0
20260905214505 75 79 9.0 15.0 0.00 0.00 0.00 29 1009.0
20260905214005 75 89 8.0 13.0 0.00 0.00 0.00 29 1008.9
20260905213505 75 80 11.0 15.0 0.00 0.00 0.00 29 1009.0
20260905213005 75 95 9.0 20.0 0.00 0.00 0.00 29 1008.9
20260905212505 75 97 14.0 20.0 0.00 0.00 0.00 29 1008.9
20260905212005 75 68 8.0 14.0 0.00 0.00 0.00 29 1009.0
20260905211505 75 35 6.0 17.0 0.00 0.00 0.00 29 1009.0
20260905211005 76 60 10.0 17.0 0.00 0.00 0.00 28 1008.9
20260905210004 76 85 12.0 17.0 0.00 0.00 0.00 28 1009.1
20260905205505 77 96 10.0 18.0 0.00 0.00 0.00 27 1009.1
20260905205005 78 103 10.0 18.0 0.00 0.00 0.00 27 1009.0
20260905204504 78 94 6.0 18.0 0.00 0.00 0.00 27 1008.9
20260905203505 76 86 12.0 18.0 0.00 0.00 0.00 29 1009.1
20260905202505 75 57 12.0 17.0 0.00 0.00 0.00 30 1009.2
20260905202005 76 55 12.0 17.0 0.00 0.00 0.00 29 1009.3
20260905201504 75 105 9.0 14.0 0.00 0.00 0.00 30 1009.4
20260905201005 75 53 8.0 16.0 0.00 0.00 0.00 30 1009.4
20260905200004 74 101 10.0 17.0 0.00 0.00 0.00 31 1009.4
20260905195505 73 57 10.0 20.0 0.00 0.00 0.00 31 1009.3
20260905195005 73 69 13.0 20.0 0.00 0.00 0.00 31 1009.4
20260905194505 73 78 12.0 20.0 0.00 0.00 0.00 31 1009.5
20260905194005 74 53 9.0 16.0 0.00 0.00 0.00 31 1009.5
20260905193505 74 53 9.0 17.0 0.00 0.00 0.00 30 1009.5
20260905192504 74 70 12.0 17.0 0.00 0.00 0.00 32 1009.6
20260905191504 72 76 9.0 20.0 0.00 0.00 0.00 32 1009.6
20260905191005 73 48 10.0 20.0 0.00 0.00 0.00 31 1009.5
20260905190005 72 55 6.0 16.0 0.00 0.00 0.00 32 1009.7
20260905185505 72 78 12.0 20.0 0.00 0.00 0.00 32 1009.8
20260905184505 72 63 9.0 17.0 0.00 0.00 0.00 32 1009.8
20260905184005 73 62 9.0 18.0 0.00 0.00 0.00 31 1009.9
20260905183505 73 95 13.0 18.0 0.00 0.00 0.00 32 1010.0
20260905183005 72 75 10.0 20.0 0.00 0.00 0.00 32 1010.0
20260905182504 72 86 10.0 20.0 0.00 0.00 0.00 32 1010.1
20260905182005 72 86 13.0 18.0 0.00 0.00 0.00 32 1010.1
20260905181505 72 98 7.0 20.0 0.00 0.00 0.00 33 1010.2
20260905181005 70 105 13.0 20.0 0.00 0.00 0.00 34 1010.1
20260905180004 71 74 12.0 17.0 0.00 0.00 0.00 33 1010.4
20260905175505 70 93 10.0 17.0 0.00 0.00 0.00 34 1010.4
20260905175004 70 77 11.0 17.0 0.00 0.00 0.00 34 1010.4
20260905174004 70 85 10.0 16.0 0.00 0.00 0.00 35 1010.4
20260905173505 69 85 10.0 16.0 0.00 0.00 0.00 36 1010.4
20260905173005 68 89 9.0 17.0 0.00 0.00 0.00 38 1010.4
20260905172004 67 52 8.0 17.0 0.00 0.00 0.00 38 1010.5
20260905171004 66 58 9.0 15.0 0.00 0.00 0.00 40 1010.6
20260905170005 66 53 10.0 15.0 0.00 0.00 0.00 39 1010.7
20260905165504 66 76 7.0 16.0 0.00 0.00 0.00 39 1010.7
20260905165004 66 77 9.0 16.0 0.00 0.00 0.00 40 1010.7
20260905164505 66 58 9.0 16.0 0.00 0.00 0.00 40 1010.5
20260905164004 65 55 7.0 15.0 0.00 0.00 0.00 42 1010.6
20260905163505 65 56 8.0 15.0 0.00 0.00 0.00 41 1010.6
20260905163005 65 52 6.0 15.0 0.00 0.00 0.00 42 1010.5
20260905162504 65 73 6.0 13.0 0.00 0.00 0.00 42 1010.5
20260905162004 64 36 3.0 13.0 0.00 0.00 0.00 43 1010.6
20260905160004 63 62 5.0 12.0 0.00 0.00 0.00 44 1010.5
20260905155505 63 43 5.0 12.0 0.00 0.00 0.00 46 1010.5
20260905154504 62 25 3.0 10.0 0.00 0.00 0.00 48 1010.5
20260905154005 62 42 5.0 10.0 0.00 0.00 0.00 47 1010.5
20260905153005 61 48 5.0 12.0 0.00 0.00 0.00 48 1010.6
20260905152504 61 32 7.0 12.0 0.00 0.00 0.00 49 1010.7
20260905152005 61 36 6.0 12.0 0.00 0.00 0.00 49 1010.6
20260905151005 61 37 6.0 12.0 0.00 0.00 0.00 49 1010.7
20260905145504 60 18 7.0 13.0 0.00 0.00 0.00 50 1010.6
20260905145004 60 29 7.0 12.0 0.00 0.00 0.00 50 1010.7
20260905144005 59 27 6.0 13.0 0.00 0.00 0.00 52 1010.6
20260905143504 58 36 6.0 10.0 0.00 0.00 0.00 52 1010.6
20260905143005 58 30 7.0 13.0 0.00 0.00 0.00 52 1010.5
20260905142504 58 24 7.0 13.0 0.00 0.00 0.00 52 1010.5
20260905142005 58 49 5.0 12.0 0.00 0.00 0.00 52 1010.5
20260905141504 57 36 6.0 10.0 0.00 0.00 0.00 53 1010.5
20260905140005 56 23 5.0 12.0 0.00 0.00 0.00 55 1010.3
20260905135508 56 17 5.0 9.0 0.00 0.00 0.00 56 1010.3
20260905135004 56 15 4.0 9.0 0.00 0.00 0.00 56 1010.3
20260905134004 55 23 5.0 10.0 0.00 0.00 0.00 56 1010.0
20260905133005 55 15 6.0 10.0 0.00 0.00 0.00 56 1010.0
20260905132504 55 29 5.0 9.0 0.00 0.00 0.00 57 1009.9
20260905131005 53 45 5.0 8.0 0.00 0.00 0.00 59 1009.6
20260905130004 53 25 5.0 9.0 0.00 0.00 0.00 58 1009.3
20260905125005 53 33 5.0 9.0 0.00 0.00 0.00 58 1009.2
20260905124505 54 37 5.0 10.0 0.00 0.00 0.00 58 1009.1
20260905124005 53 46 5.0 10.0 0.00 0.00 0.00 58 1009.1
20260905123504 53 57 4.0 8.0 0.00 0.00 0.00 58 1009.0
20260905123004 53 34 5.0 8.0 0.00 0.00 0.00 58 1008.8
20260905122504 54 31 4.0 9.0 0.00 0.00 0.00 57 1008.8
20260905121504 54 36 5.0 10.0 0.00 0.00 0.00 56 1008.6
20260905121005 55 33 5.0 10.0 0.00 0.00 0.00 55 1008.5
20260905120005 55 31 6.0 12.0 0.00 0.00 0.00 55 1008.3
20260905115004 55 29 5.0 12.0 0.00 0.00 0.00 54 1008.0
20260905114504 55 29 6.0 12.0 0.00 0.00 0.00 54 1007.9
20260905114005 55 29 7.0 12.0 0.00 0.00 0.00 54 1008.0
20260905113505 55 48 5.0 10.0 0.00 0.00 0.00 54 1008.0
20260905113004 55 31 5.0 10.0 0.00 0.00 0.00 54 1007.9
20260905112504 55 42 3.0 9.0 0.00 0.00 0.00 54 1007.9
20260905112005 55 44 4.0 6.0 0.00 0.00 0.00 54 1007.8
20260905111004 54 41 3.0 6.0 0.00 0.00 0.00 56 1007.4
20260905105505 55 29 2.0 6.0 0.00 0.00 0.00 55 1007.2
20260905104505 55 48 5.0 9.0 0.00 0.00 0.00 55 1007.0
20260905104005 55 27 5.0 9.0 0.00 0.00 0.00 54 1007.1
20260905103505 55 53 5.0 9.0 0.00 0.00 0.00 54 1007.0
20260905102505 56 43 6.0 10.0 0.00 0.00 0.00 53 1007.0
20260905102005 56 59 5.0 12.0 0.00 0.00 0.00 53 1007.1
20260905101504 56 66 5.0 12.0 0.00 0.00 0.00 53 1007.0
20260905101004 56 53 6.0 10.0 0.00 0.00 0.00 52 1006.8
20260905095505 57 78 5.0 12.0 0.00 0.00 0.00 51 1007.1
20260905094504 57 64 6.0 10.0 0.00 0.00 0.00 52 1007.1
20260905093505 57 98 6.0 8.0 0.00 0.00 0.00 52 1007.3
20260905093004 57 86 4.0 9.0 0.00 0.00 0.00 52 1007.3
20260905092504 57 78 6.0 9.0 0.00 0.00 0.00 53 1007.1
20260905092004 57 84 6.0 9.0 0.00 0.00 0.00 52 1007.1
20260905091504 57 76 6.0 8.0 0.00 0.00 0.00 52 1007.0
20260905091004 56 66 5.0 6.0 0.00 0.00 0.00 53 1006.9
20260905090005 57 53 3.0 9.0 0.00 0.00 0.00 52 1006.8
20260905085504 57 77 7.0 9.0 0.00 0.00 0.00 52 1006.8
20260905085004 57 84 7.0 9.0 0.00 0.00 0.00 52 1006.8
20260905084504 58 86 3.0 10.0 0.00 0.00 0.00 51 1006.8
20260905084005 58 56 6.0 12.0 0.00 0.00 0.00 50 1006.5
20260905083504 58 48 6.0 12.0 0.00 0.00 0.00 50 1006.4
20260905083004 58 58 7.0 12.0 0.00 0.00 0.00 50 1006.4
20260905082504 58 38 6.0 10.0 0.00 0.00 0.00 50 1006.2
20260905081505 59 51 5.0 9.0 0.00 0.00 0.00 49 1006.6
20260905081004 59 40 6.0 9.0 0.00 0.00 0.00 49 1006.5
20260905080005 59 29 6.0 9.0 0.00 0.00 0.00 49 1006.6
20260905075505 59 37 5.0 8.0 0.00 0.00 0.00 49 1006.7
20260905075004 59 24 3.0 10.0 0.00 0.00 0.00 49 1006.7
20260905074004 59 26 5.0 10.0 0.00 0.00 0.00 49 1006.6
20260905073505 59 36 5.0 7.0 0.00 0.00 0.00 49 1006.5
20260905073005 60 30 3.0 8.0 0.00 0.00 0.00 48 1006.5
20260905072504 60 26 3.0 8.0 0.00 0.00 0.00 48 1006.4
20260905071004 61 33 3.0 6.0 0.00 0.00 0.00 47 1006.4
20260905070004 62 27 3.0 6.0 0.00 0.00 0.00 46 1006.5
20260905065004 62 17 5.0 9.0 0.00 0.00 0.00 45 1006.5
20260905064504 62 26 3.0 9.0 0.00 0.00 0.00 45 1006.6
20260905064004 62 26 5.0 8.0 0.00 0.00 0.00 45 1006.7
20260905063504 62 20 3.0 8.0 0.00 0.00 0.00 46 1006.7
20260905063004 62 16 1.0 3.0 0.00 0.00 0.00 46 1006.8
20260905062504 62 15 2.0 3.0 0.00 0.00 0.00 45 1006.7
20260905062004 63 17 2.0 3.0 0.00 0.00 0.00 45 1006.5
20260905061504 63 31 1.0 7.0 0.00 0.00 0.00 45 1006.6
20260905061004 63 19 3.0 7.0 0.00 0.00 0.00 44 1006.4
20260905060004 63 21 2.0 5.0 0.00 0.00 0.00 44 1006.6
20260905055004 64 19 3.0 8.0 0.00 0.00 0.00 43 1006.5
20260905054504 64 28 4.0 10.0 0.00 0.00 0.00 43 1006.5
20260905054005 64 35 5.0 10.0 0.00 0.00 0.00 43 1006.5
20260905053504 64 17 3.0 12.0 0.00 0.00 0.00 43 1006.4
20260905053004 64 32 6.0 12.0 0.00 0.00 0.00 42 1006.3
20260905052504 64 24 5.0 10.0 0.00 0.00 0.00 42 1006.1
20260905052004 64 32 4.0 10.0 0.00 0.00 0.00 42 1006.0
20260905051504 64 26 2.0 8.0 0.00 0.00 0.00 42 1006.1
20260905051004 64 31 2.0 8.0 0.00 0.00 0.00 42 1006.0
20260905050004 65 67 3.0 6.0 0.00 0.00 0.00 41 1006.1
20260905045504 65 8 2.0 15.0 0.00 0.00 0.00 41 1005.9
20260905045005 65 338 4.0 15.0 0.00 0.00 0.00 41 1005.8
20260905044504 65 331 6.0 15.0 0.00 0.00 0.00 41 1005.7
20260905044004 65 346 3.0 8.0 0.00 0.00 0.00 41 1005.6
20260905043504 65 2 3.0 10.0 0.00 0.00 0.00 41 1005.6